Location: Moscow
(38.8570°N, 84.2291°W)
Time: 19:24:02
(UTC+00:00)

Okean 1 Rocket - Pass Details

Date: 15 November 2025
Orbit: 599 x 628 km, 82.5° (Epoch: 12 December)

Event Time Altitude Azimuth Distance (km) Brightness Sun altitude
Rises 23:39:39 0° 162° (SSE) 2,893 6.4 -15.0°
Reaches altitude 10° 23:42:03 10° 152° (SSE) 1,988 5.5 -15.5°
Maximum altitude 23:45:56 31° 91° (E) 1,092 3.8 -16.2°
Enters shadow 23:46:30 30° 75° (ENE) 1,118 3.8 -16.3°
